Welcome to the New NWS' Forecast!
Most changes are behind the scenes, but click here for differences you might notice.

Regional Weather Roundup (RWR)

Issued by National Weather Service (NWS)

                            
247 
ASUS42 KFFC 212110
RWRGA 
WEATHER ROUNDUP FOR GEORGIA
NATIONAL WEATHER SERVICE PEACHTREE CITY GA
400 PM EST TUE NOV 21 2017

NOTE: "FAIR" INDICATES FEW OR NO CLOUDS BELOW 12,000 FEET WITH NO
SIGNIFICANT WEATHER AND/OR OBSTRUCTIONS TO VISIBILITY. 

* = USE WITH CAUTION. THE STATIONS MARKED WITH AN ASTERISK MAY NOT
REPORT WEATHER SUCH AS PRECIPITATION, FOG, OR THUNDER AND ARE NOT 
QUALITY CONTROLLED BY NWS.

THE REMARK "TC" DENOTES TEMPERATURE READING IN DEGREES CELSIUS.

GAZ001>058-212200-
NORTH GEORGIA
  
CITY           SKY/WX    TMP DP  RH WIND       PRES   REMARKS
ATLANTA        PTSUNNY   65  53  65 S5        30.01F                  
ATHENS         MOSUNNY   62  51  67 NE3       30.04F                  
CHAMBLEE       PTSUNNY   64  50  60 CALM      30.01F                  
PEACHTREE CITY CLOUDY    67  54  63 VRB3      30.01S                  
ROME           CLOUDY    64  52  64 CALM      30.00F                  
WEST ATLANTA   CLOUDY    66  52  60 SE3       30.01S                  
GAINESVILLE    MOSUNNY   63  49  60 SE8       30.04F                  
CARTERSVILLE   CLOUDY    64  52  64 CALM      30.02S                  

  
CITY           SKY/WX    TMP DP  RH WIND       PRES   REMARKS
DALTON*        MOSUNNY   64  50  59 SE6       30.02F                  
LAWRENCEVILLE* MOSUNNY   65  52  62 VRB3      30.03F                  
MARIETTA       PTSUNNY   65  50  58 SE7       30.01S                  
KENNESAW*      CLOUDY    65  50  58 S5        30.02F                  
CANTON*        CLOUDY    66  50  55 CALM      30.03S                  
$$

GAZ059>098-102>109-212200-
CENTRAL GEORGIA
  
CITY           SKY/WX    TMP DP  RH WIND       PRES   REMARKS
AUGUSTA-BUSH   CLOUDY    67  55  65 CALM      30.02F                  
AUGUSTA-DANIEL CLOUDY    67  54  63 SW3       30.04S                  
COLUMBUS       CLOUDY    70  55  59 CALM      29.98F                  
MACON          CLOUDY    65  56  72 E6        30.01F                  
ROBINS AFB     PTSUNNY   66  56  70 E5        30.00S                  

  
CITY           SKY/WX    TMP DP  RH WIND       PRES   REMARKS
LAGRANGE*      CLOUDY    67  55  66 CALM      30.00S                  
SYLVANIA*      CLOUDY    69  60  72 CALM      30.03S                  
MILLEDGEVILLE* CLOUDY    64  57  77 CALM      30.02F                  
$$

GAZ099>101-110>166-212200-
SOUTH GEORGIA
  
CITY           SKY/WX    TMP DP  RH WIND       PRES   REMARKS
SAVANNAH       CLOUDY    70  60  70 NE6       30.00S                  
VALDOSTA       LGT RAIN  63  62  97 CALM      29.98S FOG              
ALMA           CLOUDY    70  61  73 CALM      29.98F                  
ST SIMONS      CLOUDY    70  64  81 NE6       29.97F                  
FT STEWART     CLOUDY    66  63  91 N5        29.98F                  
ALBANY         CLOUDY    70  59  68 E7        29.96S                  
HUNTER AFB     LGT RAIN  69  60  75 SW13      29.97S                  
MOODY AFB      LGT RAIN  64  61  88 CALM      29.97S                  
BRUNSWICK      CLOUDY    70  63  78 NE3       29.98F                  

  
CITY           SKY/WX    TMP DP  RH WIND       PRES   REMARKS
BAINBRIDGE*    CLOUDY    70  63  78 S9        29.97R                  
MOULTRIE*      DRIZZLE   64  61  88 CALM      29.99R                  
VIDALIA*       CLOUDY    66  61  82 NE3       30.02S                  
WAYCROSS*      CLOUDY    70  60  70 CALM      29.98S                  
DOUGLAS*       CLOUDY    68  59  73 CALM      30.00S                  
$$